Regional Weather Roundup
Issued by NWS

Home | Current Version | Previous Version | Text Only | Print | Product List | Glossary Off
Versions: 1 2 3 4 5 6 7 8 9 10 11 12 13 14 15 16 17 18 19 20 21 22 23 24 25 26 27 28 29 30 31 32 33 34 35 36 37 38 39 40 41 42 43 44 45 46 47 48 49 50

984
ASUS43 KDMX 211501
RWRIA

WEATHER ROUNDUP FOR IOWA
NATIONAL WEATHER SERVICE DES MOINES IA
1000 AM CDT SAT APR 21 2018

NOTE: "FAIR" INDICATES FEW OR NO CLOUDS BELOW 12,000 FEET WITH NO
SIGNIFICANT WEATHER AND/OR OBSTRUCTIONS TO VISIBILITY.

* - THESE STATIONS ARE NOT NWS STATIONS...THUS NOT UNDER NWS
QUALITY CONTROL.  THEY ALSO DO NOT REPORT WEATHER SUCH
AS PRECIPITATION OR FOG.

IAZ001>003-012>014-020>022-031>034-043>046-211600-
   NORTHWEST IOWA

CITY           SKY/WX    TMP DP  RH WIND       PRES   REMARKS
CARROLL *      CLOUDY    50  34  53 SE12      30.34F
CHEROKEE *     CLOUDY    40  33  74 E7        30.34F
DENISON *      CLOUDY    48  32  53 E12       30.34S
LE MARS *      CLOUDY    45  32  61 NE8G15    30.34F
ORANGE CITY *  CLOUDY    45  36  70 E6        30.35S
SHELDON *      CLOUDY    43  34  70 E9        30.35S
SIOUX CITY     CLOUDY    44  33  65 N7        30.33S
SPENCER        CLOUDY    40  31  70 NE10      30.37S WCI  33
STORM LAKE *   CLOUDY    39  34  81 NE8       30.34F WCI  34
$$

IAZ055>058-069>071-079>083-090>094-211600-
   SOUTHWEST IOWA

CITY           SKY/WX    TMP DP  RH WIND       PRES   REMARKS
ATLANTIC *     PTSUNNY   48  30  49 E8        30.30F
AUDUBON *      CLOUDY    46  30  53 E9        30.32F
CLARINDA *     CLOUDY    52  27  37 E9G17     30.29F
COUNCIL BLFS * CLOUDY    48  30  49 E9        30.28F
CRESTON *      CLOUDY    52  25  35 E15       30.30F
HARLAN  *      CLOUDY    48  30  49 E13       30.33F
LAMONI         CLOUDY    49  26  41 E6        30.30F
RED OAK *      CLOUDY    50  28  43 E6G13     30.28F
SHENANDOAH *   CLOUDY    52  28  40 E12       30.27F
$$

IAZ047>049-059>061-072>074-084-211600-
   CENTRAL IOWA

CITY           SKY/WX    TMP DP  RH WIND       PRES   REMARKS
AMES           CLOUDY    49  31  49 SE7       30.36F
ANKENY *       CLOUDY    48  30  49 E7        30.36F
BOONE *        CLOUDY    48  32  53 E7        30.35S
CHARITON *     CLOUDY    50  28  43 E8        30.33F
DES MOINES     CLOUDY    49  27  42 E9        30.34F
GRINNELL*      PTSUNNY   49  28  43 E9        30.39F
KNOXVILLE *    PTSUNNY   50  27  40 SE8       30.34F
MARSHALLTOWN   CLOUDY    52  33  48 E9        30.37F
NEWTON *       CLOUDY    50  28  43 E12       30.37F
PELLA *        CLOUDY    50  26  39 E8        30.38S
$$

IAZ004>006-015-016-023>025-035-036-211600-
   NORTH CENTRAL IOWA

CITY           SKY/WX    TMP DP  RH WIND       PRES   REMARKS
ALGONA *       CLOUDY    43  30  61 SE6       30.39R
CLARION *      CLOUDY    45  37  76 E9        30.37F
ESTHERVILLE    CLOUDY    36  30  79 NE5       30.39S WCI  32
FORT DODGE *   MOSUNNY   50  38  63 E9        30.37S
MASON CITY     CLOUDY    39  33  79 MISG      30.41F
FOREST CITY *  PTSUNNY   43  32  65 SE5       30.40S
IOWA FALLS *   FAIR      50  35  56 E9        30.39S
$$

IAZ007>011-017>019-026>030-037>042-050>054-066-211600-
   NORTHEAST IOWA

CITY           SKY/WX    TMP DP  RH WIND       PRES   REMARKS
CEDAR RAPIDS   FAIR      51  29  42 E8        30.39F
CHARLES CITY * FAIR      48  34  57 CALM      30.41F
CLINTON *        N/A     48  25  40 E12       30.44S
DECORAH *      FAIR      43  30  61 SE3       30.42S
DUBUQUE        CLOUDY    47  33  58 E5        30.44S
MONTICELLO *   PTSUNNY   50  21  32 E6G13     30.43S
OELWEIN *      PTSUNNY   52  36  54 SE14      30.41F
WATERLOO       CLOUDY    52  33  48 E14       30.40F
$$

IAZ064-065-067-068-078-211600-
   EAST CENTRAL IOWA

CITY           SKY/WX    TMP DP  RH WIND       PRES   REMARKS
DAVENPORT      FAIR      50  23  34 SE7       30.45S
IOWA CITY      PTSUNNY   50  27  40 NE6       30.41F
MUSCATINE *    FAIR      52  27  37 SE7       30.41F
QUAD CITIES    FAIR      53  26  35 VRB6      30.42S
$$

IAZ062-063-075>077-085>089-095>099-211600-
   SOUTHEAST IOWA

CITY           SKY/WX    TMP DP  RH WIND       PRES   REMARKS
BURLINGTON     CLOUDY    52  29  41 E7        30.39F
FAIRFIELD *    CLOUDY    52  27  37 E9        30.38R
FORT MADISON * CLOUDY    52  30  43 E8        30.39F
KEOKUK *       CLOUDY    54  32  43 E12       30.37F
OSKALOOSA *    PTSUNNY   49  27  42 E12       30.37S
CENTERVILLE *    N/A     50  27  40 E10       30.34F
OTTUMWA        CLOUDY    48  29  47 E8        30.37S
WASHINGTON *   CLOUDY    50  28  43 E9        30.40F
$$

ABBREVIATIONS USED IN REMARKS
   TC - TEMPERATURES IN CELSIUS
  WCI - WIND CHILL INDEX
   HX - HEAT INDEX
  VSB - VISIBILITY
$$





USA.gov is the U.S. government's official web portal to all federal, state and local government web resources and services.